Flag for Canada Weather past 2 weeks in Saint John, New Brunswick, Canada

Now
50 °F

Partly sunny.


Feels Like: 46 °F
Forecast: N/A
Wind: 9 mph from Southwest

Location: Saint John

Current Time: May 22, 2015 at 6:49:53 PM

Latest Report: May 22, 2015 at 6:00 PM


Visibility: 15 mi

Pressure: 29.80 "Hg

Humidity: 76%

Dew point: 43 °F

Location of Saint JohnLocation

Historic Weather in Saint John — Graph

°F

Saint John temperature yesterday

Maximum temperature yesterday: 64 °F (at 3:00 PM)
Minimum temperature yesterday: 41 °F (at 12:00 AM)
Average temperature yesterday: 52 °F

Past Weeks' High & Low Weather Summary

 TemperatureHumidityPressure
High68 °F (May 7, 5:00 PM)100% (May 9, 9:00 PM)30.42 "Hg (May 9, 9:00 PM)
Low28 °F (May 14, 3:00 AM)20% (May 7, 8:00 PM)29.49 "Hg (May 20, 5:00 PM)
Average49 °F72%30.06 "Hg
* Reported May 7 5:00 PM — May 22 5:00 PM, Saint John, Weather by CustomWeather, © 2015

Note: Actual official high and low records may vary slightly from our data, if they occured in-between our weather recording intervals... More about our weather records

Advertising

Saint John weather history for previous 24 hours

 ConditionsComfort  
Time TempWeatherWind HumidityBarometerVisibility
5:00 PM
Fri, May 22
50 °FPartly sunny.8 mph76%29.80 "Hg15 mi
4:00 PM50 °FMostly cloudy.10 mph76%29.80 "Hg15 mi
3:00 PM52 °FMostly cloudy.15 mph72%29.82 "Hg15 mi
2:00 PM48 °FLight rain. Mostly cloudy.8 mph76%29.84 "Hg15 mi
1:00 PM46 °FLight rain. More clouds than sun.9 mph82%29.88 "Hg15 mi
12:00 PM46 °FOvercast.12 mph76%29.89 "Hg15 mi
11:00 AM48 °FMore clouds than sun.17 mph71%29.90 "Hg15 mi
10:00 AM48 °FOvercast.21 mph71%29.90 "Hg15 mi
9:00 AM48 °FOvercast.13 mph71%29.92 "Hg15 mi
8:00 AM46 °FPartly sunny.10 mph76%29.88 "Hg15 mi
7:00 AM46 °FMostly cloudy.8 mph76%29.90 "Hg15 mi
6:00 AM45 °FOvercast.7 mph81%29.90 "Hg15 mi
5:00 AM45 °FOvercast.8 mph87%29.88 "Hg15 mi
4:00 AM45 °FOvercast.6 mph87%29.88 "Hg15 mi
3:00 AM45 °FPassing clouds.6 mph87%29.90 "Hg15 mi
2:00 AM41 °FPassing clouds.5 mph87%29.92 "Hg15 mi
1:00 AM45 °FPassing clouds.8 mph71%29.92 "Hg15 mi
12:00 AM46 °FPassing clouds.6 mph71%29.92 "Hg15 mi
11:00 PM
Thu, May 21
46 °FPassing clouds.8 mph62%29.92 "Hg15 mi
10:00 PM46 °FPartly cloudy.6 mph62%29.89 "Hg15 mi
9:00 PM48 °FPartly sunny.9 mph58%29.87 "Hg15 mi
8:00 PM52 °FPartly sunny.15 mph50%29.85 "Hg15 mi
7:00 PM52 °FPartly sunny.14 mph50%29.83 "Hg15 mi
6:00 PM55 °FPartly sunny.23 mph47%29.83 "Hg15 mi
Weather by CustomWeather, © 2015

See weather overviewHow to use our weather pages